This is the latest recevied weather packets stored in our database for station/object NM5PB-13. If no packets are shown the sender has not sent any weather packets the latest 10 day(s).
| Time | Temp. | Humidity | Pressure | Rain* | Wind** | Luminosity | Snow |
|---|---|---|---|---|---|---|---|
| 1777488191 | 13.89° C | 46% | 1017 hPa | 0 mm | - | - | - |
| 1777487289 | 13.89° C | 46% | 1017 hPa | 0 mm | - | - | - |
| 1777486386 | 13.33° C | 45% | 1017 hPa | 0 mm | - | - | - |
| 1777485482 | 13.33° C | 46% | 1017 hPa | 0 mm | - | - | - |
| 1777484577 | 13.33° C | 46% | 1017 hPa | 0 mm | - | - | - |
| 1777483675 | 13.33° C | 47% | 1017 hPa | 0 mm | - | - | - |
| 1777482771 | 12.78° C | 45% | 1017 hPa | 0 mm | - | - | - |
| 1777481863 | 12.78° C | 46% | 1017 hPa | 0 mm | - | - | - |
| 1777480960 | 12.22° C | 48% | 1017 hPa | 0 mm | - | - | - |
| 1777480058 | 12.22° C | 46% | 1017 hPa | 0 mm | - | - | - |
| 1777479154 | 12.22° C | 49% | 1017 hPa | 0 mm | - | - | - |
| 1777478249 | 11.67° C | 48% | 1017 hPa | 0 mm | - | - | - |
| 1777477346 | 11.67° C | 49% | 1017 hPa | 0 mm | - | - | - |
| 1777476443 | 11.11° C | 52% | 1017 hPa | 0 mm | - | - | - |
| 1777475538 | 11.11° C | 53% | 1017 hPa | 0 mm | - | - | - |
| 1777474632 | 10.56° C | 55% | 1017 hPa | 0 mm | - | - | - |
| 1777473729 | 10.56° C | 56% | 1017 hPa | 0 mm | - | - | - |
| 1777472827 | 10° C | 59% | 1017 hPa | 0 mm | - | - | - |
| 1777471924 | 9.44° C | 61% | 1017 hPa | 0 mm | - | - | - |
| 1777471021 | 8.89° C | 62% | 1017 hPa | 0 mm | - | - | - |
| 1777470118 | 8.89° C | 62% | 1017 hPa | 0 mm | - | - | - |
| 1777469210 | 8.89° C | 61% | 1017 hPa | 0 mm | - | - | - |
| 1777468306 | 8.33° C | 63% | 1017 hPa | 0 mm | - | - | - |
| 1777467403 | 7.78° C | 66% | 1017 hPa | 0 mm | - | - | - |
| 1777466486 | 7.22° C | 68% | 1017 hPa | 0 mm | - | - | - |
* Rain latest hour (hover to see other rain measurements)
** Current wind speed in m/s (hover to see current wind gust speed)